Location: Nag� el Ma?a??a
(24.0667°N, 32.8833°E)
Time: 02:43:55
(UTC+00:00)

N. Korean satellite - Pass Details

Date: 06 December 2022
Orbit: 407 x 442 km, 97.3° (Epoch: 03 February)

Event Time Altitude Azimuth Distance (km) Brightness Sun altitude
Rises 02:17:36 0° 30° (NNE) 2,473 10.4 -26.8°
Maximum altitude 02:22:36 20° 97° (E) 1,090 9.1 -25.7°
Drops below altitude 10° 02:25:08 10° 147° (SSE) 1,554 9.7 -25.1°
Sets 02:27:30 0° 164° (SSE) 2,407 10.5 -24.6°
